Weather History for Lexington, KY

Change the Weather History Date:

Tuesday, March 26, 2013

  Actual Average Record
Temperature  
Mean Temperature 37 °F 49 °F  
Max Temperature 41 °F 59 °F 80 °F (1907)
Min Temperature 32 °F 39 °F 14 °F (1955)
Degree Days  
Heating Degree Days 28 16  
Month to date heating degree days 674 528  
Since 1 July heating degree days 4182 4099  
Cooling Degree Days 0 0  
Month to date cooling degree days 0 0  
Year to date cooling degree days 0 0  
Moisture  
Dew Point 30 °F    
Average Humidity 76    
Maximum Humidity 92    
Minimum Humidity 59    
Precipitation  
Precipitation 0.01 in 0.13 in 2.46 in (1913)
Month to date precipitation 5.18 3.40  
Year to date precipitation 11.16 9.80  
Snow  
Snow 0.70 in 0.10 in 0.70 in (2013)
Month to date snowfall 4.0 1.3  
Since 1 July snowfall 12.5 12.6  
Snow Depth T in    
Sea Level Pressure  
Sea Level Pressure 30.12 in    
Wind  
Wind Speed 9 mph (WNW)    
Max Wind Speed 18 mph    
Max Gust Speed 23 mph    
Visibility 7 miles    
Events Snow    
T = Trace of Precipitation, MM = Missing Value Source: NWS Daily Summary

Daily Weather History Graph

Daily Weather History Graph

Search for Another Location

Airport:

Trip Planner

Search our weather history database for the weather conditions in past years. The results will help you decide how hot, cold, wet, or windy it might be!

Date:

Astronomy

Mar. 26, 2013 Rise Set
Actual Time 7:32 AM EDT 7:56 PM EDT
Civil Twilight 7:06 AM EDT 8:22 PM EDT
Nautical Twilight 6:35 AM EDT 8:53 PM EDT
Astronomical Twilight 6:03 AM EDT 9:25 PM EDT
Moon 7:31 PM EDT (3/26) 6:48 AM EDT (3/26)
Length of Visible Light 13h 16m
Length of Day
12h 23m
Waxing Gibbous, 99% of the Moon is Illuminated
Mar 26
Waxing Gibbous
Mar 27
Full
Apr 3
Last Quarter
Apr 10
New
Apr 18
First Quarter

Hourly Weather History & Observations

Time (EDT) Temp. Windchill Dew Point Humidity Pressure Visibility Wind Dir Wind Speed Gust Speed Precip Events Conditions
12:54 AM 33.1 °F 24.4 °F 30.0 °F 89% 30.00 in 4.0 mi WNW 11.5 mph - 0.00 in Snow Light Snow
1:54 AM 33.1 °F 24.9 °F 30.0 °F 89% 30.00 in 3.0 mi WNW 10.4 mph - 0.00 in Snow Light Snow
2:54 AM 33.1 °F 26.1 °F 30.0 °F 89% 30.01 in 5.0 mi WNW 8.1 mph - 0.00 in Snow Light Snow
3:31 AM 33.8 °F 27.0 °F 30.2 °F 87% 30.00 in 3.0 mi WNW 8.1 mph - 0.00 in Snow Light Snow
3:54 AM 33.1 °F 26.1 °F 30.0 °F 89% 30.02 in 7.0 mi WNW 8.1 mph - 0.00 in Snow Light Snow
4:20 AM 33.8 °F 25.8 °F 30.2 °F 87% 30.00 in 2.5 mi WNW 10.4 mph - 0.00 in Snow Light Snow
4:22 AM 33.8 °F 27.0 °F 30.2 °F 87% 30.00 in 3.0 mi WNW 8.1 mph - 0.00 in Snow Light Snow
4:49 AM 33.8 °F 27.0 °F 30.2 °F 87% 30.01 in 6.0 mi WNW 8.1 mph - 0.00 in Snow Light Snow
4:54 AM 33.1 °F 26.1 °F 30.0 °F 89% 30.03 in 6.0 mi WNW 8.1 mph - 0.00 in Snow Light Snow
5:32 AM 33.8 °F 26.4 °F 30.2 °F 87% 30.01 in 5.0 mi WNW 9.2 mph - 0.00 in Snow Light Snow
5:44 AM 33.8 °F 26.4 °F 30.2 °F 87% 30.01 in 4.0 mi WNW 9.2 mph - 0.00 in Snow Light Snow
5:54 AM 33.1 °F 26.1 °F 30.0 °F 89% 30.04 in 4.0 mi WNW 8.1 mph - 0.00 in Snow Light Snow
6:54 AM 32.0 °F 24.8 °F 30.0 °F 92% 30.06 in 8.0 mi WNW 8.1 mph - 0.01 in   Overcast
7:54 AM 32.0 °F 24.2 °F 30.0 °F 92% 30.08 in 6.0 mi WNW 9.2 mph - 0.00 in   Overcast
8:50 AM 32.0 °F 25.6 °F 30.2 °F 93% 30.08 in 5.0 mi WNW 6.9 mph - 0.00 in Snow Light Snow
8:54 AM 32.0 °F 24.2 °F 30.0 °F 92% 30.10 in 6.0 mi WNW 9.2 mph - 0.00 in Snow Light Snow
9:54 AM 33.1 °F 26.1 °F 30.0 °F 89% 30.13 in 4.0 mi WNW 8.1 mph - 0.00 in Snow Light Snow
10:54 AM 33.1 °F 25.5 °F 28.9 °F 85% 30.15 in 10.0 mi WNW 9.2 mph - 0.00 in   Overcast
11:54 AM 34.0 °F 26.0 °F 30.0 °F 85% 30.16 in 10.0 mi WNW 10.4 mph 18.4 mph N/A   Overcast
12:54 PM 36.0 °F 28.5 °F 30.0 °F 79% 30.17 in 10.0 mi WNW 10.4 mph - N/A   Overcast
1:54 PM 37.9 °F 30.0 °F 32.0 °F 79% 30.17 in 10.0 mi WNW 12.7 mph - N/A   Overcast
1:56 PM 37.4 °F 29.3 °F 32.0 °F 81% 30.15 in 10.0 mi WNW 12.7 mph - N/A   Overcast
2:47 PM 39.2 °F 33.0 °F 30.2 °F 70% 30.16 in 10.0 mi WNW 9.2 mph - N/A   Overcast
2:54 PM 37.9 °F 32.7 °F 30.0 °F 73% 30.18 in 10.0 mi WNW 6.9 mph - N/A   Overcast
3:45 PM 37.4 °F 30.3 °F 30.2 °F 75% 30.16 in 4.0 mi WNW 10.4 mph 23.0 mph 0.00 in Snow Light Snow
3:54 PM 39.0 °F 33.4 °F 32.0 °F 76% 30.18 in 7.0 mi WNW 8.1 mph - 0.00 in   Unknown
4:54 PM 39.0 °F 32.3 °F 30.9 °F 73% 30.18 in 10.0 mi West 10.4 mph - 0.00 in   Overcast
5:54 PM 37.9 °F 32.1 °F 28.0 °F 68% 30.19 in 10.0 mi WNW 8.1 mph - 0.00 in   Overcast
6:54 PM 39.0 °F 32.3 °F 27.0 °F 62% 30.21 in 10.0 mi WNW 10.4 mph - N/A   Overcast
7:54 PM 37.0 °F 32.4 °F 28.0 °F 70% 30.23 in 10.0 mi WNW 5.8 mph - 0.00 in   Overcast
8:54 PM 37.0 °F 29.3 °F 27.0 °F 67% 30.25 in 9.0 mi WNW 11.5 mph 17.3 mph 0.00 in Snow Light Snow
9:54 PM 36.0 °F 29.6 °F 27.0 °F 70% 30.27 in 10.0 mi WNW 8.1 mph - 0.00 in   Overcast
10:54 PM 35.1 °F 28.6 °F 25.0 °F 67% 30.28 in 10.0 mi WNW 8.1 mph - N/A   Overcast
11:54 PM 34.0 °F 29.8 °F 26.1 °F 73% 30.28 in 10.0 mi Variable 4.6 mph - N/A   Overcast